FW0765 Weather Reports


Display with metric or nautical units.
time (UTC)temp
F
wind
direction
speed
MPH
gust
MPH
rain 1hr
in
rain 24hr
in
rain mn
in
humidity
%
barometer
mb
20260901141544 78 149 3.0 8.0 0.00 0.00 0.00 65 1014.3
20260901140042 78 148 2.0 9.0 0.00 0.00 0.00 65 1014.1
20260901134550 77 146 3.0 9.0 0.00 0.00 0.00 67 1014.1
20260901133039 77 131 3.0 7.0 0.00 0.00 0.00 68 1014.1
20260901131539 77 57 1.0 4.0 0.00 0.00 0.00 67 1014.0
20260901130036 77 231 2.0 5.0 0.00 0.00 0.00 68 1013.9
20260901124532 77 134 0.0 3.0 0.00 0.00 0.00 68 1013.7
20260901123037 77 105 0.0 2.0 0.00 0.00 0.00 67 1013.6
20260901121527 77 105 2.0 6.0 0.00 0.00 0.00 67 1013.6
20260901120025 77 164 3.0 8.0 0.00 0.00 0.00 66 1013.3
20260901114523 78 209 4.0 10.0 0.00 0.00 0.00 66 1013.2
20260901113023 78 217 3.0 7.0 0.00 0.00 0.00 66 1013.2
20260901111521 78 186 5.0 11.0 0.00 0.00 0.00 65 1013.0
20260901110017 78 188 5.0 10.0 0.00 0.00 0.00 66 1012.8
20260901104519 78 196 6.0 12.0 0.00 0.00 0.00 66 1012.8
20260901103015 78 178 6.0 15.0 0.00 0.00 0.00 65 1012.6
20260901101513 78 203 6.0 11.0 0.00 0.00 0.00 65 1012.7
20260901100011 79 199 6.0 11.0 0.00 0.00 0.00 65 1012.6
20260901094509 79 189 7.0 14.0 0.00 0.00 0.00 64 1012.5
20260901093007 80 175 8.0 13.0 0.00 0.00 0.00 64 1012.7
20260901091506 80 167 7.0 12.0 0.00 0.00 0.00 64 1012.7
20260901090006 80 175 5.0 13.0 0.00 0.00 0.00 63 1012.6
20260901084503 80 165 6.0 13.0 0.00 0.00 0.00 62 1012.5
20260901083002 80 190 6.0 14.0 0.00 0.00 0.00 62 1012.6
20260901081501 79 175 4.0 12.0 0.00 0.00 0.00 63 1012.5
20260901080100 79 163 4.0 8.0 0.00 0.00 0.00 63 1012.4
20260901074609 79 174 3.0 6.0 0.00 0.00 0.00 62 1012.4
20260901073101 79 167 4.0 7.0 0.00 0.00 0.00 62 1012.5
20260901071557 79 159 3.0 9.0 0.00 0.00 0.00 61 1012.5
20260901070055 79 146 2.0 5.0 0.00 0.00 0.00 60 1012.4
20260901064555 80 164 3.0 6.0 0.00 0.00 0.00 59 1012.5
20260901063050 81 157 2.0 5.0 0.00 0.00 0.00 58 1012.5
20260901061547 81 163 2.0 6.0 0.00 0.00 0.00 57 1012.4
20260901060044 82 167 3.0 7.0 0.00 0.00 0.00 56 1012.3
20260901054544 82 145 2.0 8.0 0.00 0.00 0.00 56 1012.2
20260901053045 83 150 4.0 8.0 0.00 0.00 0.00 55 1012.3
20260901051541 84 145 3.0 8.0 0.00 0.00 0.00 54 1012.2
20260901050034 84 157 4.0 9.0 0.00 0.00 0.00 53 1012.1
20260901044535 85 150 4.0 9.0 0.00 0.00 0.00 52 1011.8
20260901043032 85 150 5.0 10.0 0.00 0.00 0.00 51 1011.8
20260901041537 86 186 6.0 11.0 0.00 0.00 0.00 50 1011.7
20260901040032 86 142 8.0 12.0 0.00 0.00 0.00 49 1011.6
20260901034532 86 148 6.0 12.0 0.00 0.00 0.00 49 1011.6
20260901033030 87 161 6.0 10.0 0.00 0.00 0.00 48 1011.4
20260901031532 87 122 4.0 11.0 0.00 0.00 0.00 47 1011.2
20260901030029 88 157 5.0 11.0 0.00 0.00 0.00 46 1011.0
20260901024529 88 110 6.0 11.0 0.00 0.00 0.00 45 1010.8
20260901023027 88 154 5.0 11.0 0.00 0.00 0.00 45 1010.5
20260901021527 89 152 4.0 7.0 0.00 0.00 0.00 44 1010.3
20260901020026 89 154 3.0 10.0 0.00 0.00 0.00 43 1010.1
20260901014526 90 167 4.0 8.0 0.00 0.00 0.00 42 1009.8
20260901013039 91 138 4.0 10.0 0.00 0.00 0.00 41 1009.6
20260901011534 92 206 7.0 12.0 0.00 0.00 0.00 40 1009.4
20260901010025 92 154 8.0 12.0 0.00 0.00 0.00 40 1009.4
20260901004524 93 148 3.0 10.0 0.00 0.00 0.00 38 1009.5
20260901003025 94 213 5.0 14.0 0.00 0.00 0.00 37 1009.3
20260901001523 95 155 5.0 14.0 0.00 0.00 0.00 36 1009.2
20260901000029 96 150 6.0 13.0 0.00 0.00 0.00 35 1009.0
20260831234522 97 156 6.0 14.0 0.00 0.00 0.00 34 1008.9
20260831233024 97 159 4.0 13.0 0.00 0.00 0.00 31 1008.9
20260831231521 97 150 6.0 11.0 0.00 0.00 0.00 32 1008.9
20260831230020 97 151 3.0 12.0 0.00 0.00 0.00 31 1008.9
20260831224519 97 74 5.0 12.0 0.00 0.00 0.00 32 1009.1
20260831223018 97 91 4.0 13.0 0.00 0.00 0.00 33 1009.2
20260831221516 97 188 4.0 10.0 0.00 0.00 0.00 34 1009.2
20260831220015 98 170 5.0 12.0 0.00 0.00 0.00 32 1009.4
20260831214518 98 196 5.0 9.0 0.00 0.00 0.00 33 1009.8
20260831213011 99 208 4.0 9.0 0.00 0.00 0.00 32 1009.8
20260831211512 97 122 4.0 10.0 0.00 0.00 0.00 33 1010.0
20260831210006 98 232 7.0 10.0 0.00 0.00 0.00 32 1010.3
20260831204504 98 115 6.0 12.0 0.00 0.00 0.00 34 1010.3
20260831203137 97 199 2.0 10.0 0.00 0.00 0.00 37 1010.6
20260831201606 96 161 7.0 14.0 0.00 0.00 0.00 36 1010.7
20260831200139 96 173 4.0 11.0 0.00 0.00 0.00 36 1010.9
20260831194605 95 173 4.0 11.0 0.00 0.00 0.00 36 1011.1
20260831193057 95 185 2.0 12.0 0.00 0.00 0.00 36 1011.2
20260831191559 96 178 6.0 14.0 0.00 0.00 0.00 36 1011.4
20260831190053 96 179 3.0 9.0 0.00 0.00 0.00 38 1011.5
20260831184549 93 201 4.0 10.0 0.00 0.00 0.00 40 1011.8
20260831183048 93 137 5.0 9.0 0.00 0.00 0.00 39 1012.3
20260831181552 93 163 4.0 12.0 0.00 0.00 0.00 42 1012.6
20260831180045 92 252 6.0 11.0 0.00 0.00 0.00 44 1012.8
20260831174550 93 170 6.0 14.0 0.00 0.00 0.00 45 1012.9
20260831173042 91 154 7.0 14.0 0.00 0.00 0.00 47 1013.0
20260831171538 92 215 5.0 14.0 0.00 0.00 0.00 48 1013.0
20260831170039 91 138 6.0 11.0 0.00 0.00 0.00 49 1013.3
20260831164530 89 192 8.0 14.0 0.00 0.00 0.00 51 1013.3
20260831163028 89 173 8.0 16.0 0.00 0.00 0.00 52 1013.3
20260831161524 88 207 11.0 14.0 0.00 0.00 0.00 54 1013.3
20260831160022 87 209 8.0 15.0 0.00 0.00 0.00 55 1013.4
20260831154521 86 181 7.0 16.0 0.00 0.00 0.00 57 1013.3
20260831153016 85 187 7.0 16.0 0.00 0.00 0.00 57 1013.2
20260831151514 84 234 8.0 15.0 0.00 0.00 0.00 58 1013.1
20260831150012 83 227 9.0 16.0 0.00 0.00 0.00 59 1013.2
20260831144512 82 207 10.0 18.0 0.00 0.00 0.00 62 1013.0
20260831143015 81 171 8.0 17.0 0.00 0.00 0.00 65 1013.1